| time (UTC) | temp F | wind direction | speed MPH | gust MPH | rain 1hr in | rain 24hr in | rain mn in | humidity % | barometer mb |
| 20260903163819 | 85 | 315 | 1.0 | 2.0 | 0.00 | 0.42 | 0.00 | 85 | 1016.5 |
| 20260903162819 | 84 | 0.0 | 1.0 | 0.00 | 0.42 | 0.00 | 86 | 1016.4 | |
| 20260903161819 | 84 | 0.0 | 1.0 | 0.00 | 0.42 | 0.00 | 87 | 1016.7 | |
| 20260903160819 | 84 | 203 | 1.0 | 5.0 | 0.00 | 0.42 | 0.00 | 86 | 1016.6 |
| 20260903155819 | 85 | 180 | 2.0 | 5.0 | 0.00 | 0.42 | 0.00 | 84 | 1016.6 |
| 20260903154819 | 85 | 180 | 2.0 | 4.0 | 0.00 | 0.42 | 0.00 | 87 | 1016.7 |
| 20260903153819 | 85 | 180 | 1.0 | 5.0 | 0.00 | 0.42 | 0.00 | 86 | 1016.5 |
| 20260903152819 | 85 | 158 | 2.0 | 3.0 | 0.00 | 0.42 | 0.00 | 88 | 1016.7 |
| 20260903151839 | 83 | 203 | 2.0 | 5.0 | 0.00 | 0.42 | 0.00 | 91 | 1016.3 |
| 20260903150819 | 81 | 180 | 2.0 | 4.0 | 0.00 | 0.42 | 0.00 | 90 | 1016.4 |
| 20260903145839 | 80 | 203 | 1.0 | 2.0 | 0.00 | 0.42 | 0.00 | 91 | 1016.1 |
| 20260903144819 | 80 | 203 | 1.0 | 3.0 | 0.00 | 0.42 | 0.00 | 90 | 1016.6 |
| 20260903143819 | 80 | 113 | 2.0 | 5.0 | 0.00 | 0.42 | 0.00 | 91 | 1016.3 |
| 20260903142819 | 80 | 180 | 2.0 | 6.0 | 0.00 | 0.42 | 0.00 | 92 | 1015.7 |
| 20260903141819 | 79 | 135 | 2.0 | 6.0 | 0.00 | 0.42 | 0.00 | 95 | 1015.5 |
| 20260903140819 | 78 | 180 | 2.0 | 3.0 | 0.00 | 0.42 | 0.00 | 97 | 1016.3 |
| 20260903135819 | 77 | 180 | 3.0 | 4.0 | 0.00 | 0.42 | 0.00 | 98 | 1016.4 |
| 20260903134819 | 76 | 180 | 2.0 | 5.0 | 0.00 | 0.42 | 0.00 | 99 | 1016.5 |
| 20260903133818 | 76 | 180 | 2.0 | 4.0 | 0.00 | 0.42 | 0.00 | 99 | 1016.5 |
| 20260903132818 | 75 | 203 | 2.0 | 3.0 | 0.00 | 0.42 | 0.00 | 99 | 1016.9 |
| 20260903131818 | 75 | 158 | 1.0 | 2.0 | 0.00 | 0.42 | 0.00 | 99 | 1017.1 |
| 20260903130819 | 75 | 0.0 | 0.0 | 0.00 | 0.42 | 0.00 | 99 | 1017.5 | |
| 20260903125819 | 75 | 0.0 | 0.0 | 0.00 | 0.42 | 0.00 | 99 | 1017.7 | |
| 20260903124839 | 75 | 0.0 | 0.0 | 0.00 | 0.42 | 0.00 | 99 | 1017.9 | |
| 20260903123819 | 75 | 0.0 | 1.0 | 0.00 | 0.42 | 0.00 | 99 | 1018.0 | |
| 20260903122918 | 75 | 0.0 | 1.0 | 0.00 | 0.42 | 0.00 | 99 | 1017.7 | |
| 20260903121818 | 74 | 113 | 1.0 | 2.0 | 0.00 | 0.42 | 0.00 | 99 | 1017.7 |
| 20260903120839 | 74 | 0.0 | 0.0 | 0.00 | 0.42 | 0.00 | 99 | 1017.8 | |
| 20260903115819 | 74 | 113 | 1.0 | 2.0 | 0.00 | 0.42 | 0.00 | 99 | 1017.8 |
| 20260903114818 | 74 | 68 | 2.0 | 3.0 | 0.00 | 0.42 | 0.00 | 99 | 1017.9 |
| 20260903113818 | 74 | 0.0 | 1.0 | 0.00 | 0.42 | 0.00 | 99 | 1017.9 | |
| 20260903112839 | 74 | 338 | 2.0 | 4.0 | 0.00 | 0.42 | 0.00 | 99 | 1017.9 |
| 20260903111839 | 74 | 158 | 2.0 | 2.0 | 0.00 | 0.42 | 0.00 | 99 | 1017.2 |
| 20260903110819 | 74 | 0.0 | 2.0 | 0.00 | 0.42 | 0.00 | 99 | 1016.6 | |
| 20260903105818 | 74 | 158 | 1.0 | 2.0 | 0.00 | 0.42 | 0.00 | 99 | 1016.3 |
| 20260903104818 | 74 | 0.0 | 1.0 | 0.00 | 0.42 | 0.00 | 99 | 1016.3 | |
| 20260903103839 | 74 | 0.0 | 0.0 | 0.00 | 0.42 | 0.00 | 99 | 1016.3 | |
| 20260903102820 | 74 | 0.0 | 0.0 | 0.00 | 0.42 | 0.00 | 99 | 1016.4 | |
| 20260903101839 | 74 | 0.0 | 0.0 | 0.00 | 0.42 | 0.00 | 99 | 1016.5 | |
| 20260903100818 | 74 | 0.0 | 3.0 | 0.00 | 0.42 | 0.00 | 99 | 1016.6 | |
| 20260903095818 | 74 | 0.0 | 0.0 | 0.00 | 0.42 | 0.00 | 99 | 1016.7 | |
| 20260903094818 | 74 | 0.0 | 1.0 | 0.00 | 0.42 | 0.00 | 99 | 1016.8 | |
| 20260903093818 | 74 | 113 | 1.0 | 2.0 | 0.00 | 0.42 | 0.00 | 99 | 1016.7 |
| 20260903092818 | 74 | 0.0 | 0.0 | 0.00 | 0.42 | 0.00 | 99 | 1016.6 | |
| 20260903091818 | 74 | 90 | 1.0 | 3.0 | 0.00 | 0.42 | 0.00 | 99 | 1016.6 |
| 20260903090820 | 74 | 0.0 | 1.0 | 0.00 | 0.42 | 0.00 | 99 | 1016.6 | |
| 20260903085818 | 74 | 0.0 | 0.0 | 0.00 | 0.42 | 0.00 | 99 | 1016.6 | |
| 20260903084818 | 74 | 0.0 | 0.0 | 0.00 | 0.42 | 0.00 | 99 | 1016.5 | |
| 20260903083818 | 74 | 0.0 | 0.0 | 0.00 | 0.42 | 0.00 | 99 | 1016.7 | |
| 20260903082820 | 74 | 0.0 | 0.0 | 0.00 | 0.42 | 0.00 | 99 | 1016.8 | |
| 20260903081818 | 74 | 0.0 | 0.0 | 0.00 | 0.42 | 0.00 | 99 | 1017.0 | |
| 20260903080818 | 74 | 0.0 | 0.0 | 0.00 | 0.42 | 0.00 | 99 | 1016.9 | |
| 20260903075818 | 74 | 0.0 | 0.0 | 0.00 | 0.42 | 0.00 | 99 | 1016.7 | |
| 20260903074838 | 74 | 0.0 | 0.0 | 0.00 | 0.42 | 0.00 | 99 | 1016.5 | |
| 20260903073820 | 74 | 0.0 | 0.0 | 0.00 | 0.42 | 0.00 | 99 | 1016.5 | |
| 20260903072900 | 74 | 0.0 | 0.0 | 0.00 | 0.42 | 0.00 | 99 | 1016.2 | |
| 20260903071820 | 74 | 0.0 | 0.0 | 0.00 | 0.42 | 0.00 | 99 | 1016.1 | |
| 20260903070838 | 74 | 0.0 | 1.0 | 0.00 | 0.42 | 0.00 | 99 | 1016.4 | |
| 20260903065820 | 74 | 0.0 | 1.0 | 0.00 | 0.42 | 0.00 | 99 | 1016.2 | |
| 20260903064820 | 74 | 0.0 | 1.0 | 0.00 | 0.42 | 0.00 | 99 | 1016.1 | |
| 20260903063820 | 74 | 0.0 | 2.0 | 0.00 | 0.42 | 0.00 | 99 | 1016.2 | |
| 20260903062820 | 74 | 180 | 3.0 | 4.0 | 0.00 | 0.42 | 0.00 | 99 | 1016.1 |
| 20260903061820 | 74 | 180 | 1.0 | 2.0 | 0.00 | 0.42 | 0.00 | 99 | 1016.4 |
| 20260903060820 | 74 | 180 | 1.0 | 2.0 | 0.00 | 0.42 | 0.00 | 99 | 1016.4 |
| 20260903055840 | 73 | 0.0 | 0.0 | 0.00 | 0.42 | 0.00 | 99 | 1016.4 | |
| 20260903054820 | 73 | 180 | 1.0 | 3.0 | 0.00 | 0.42 | 0.00 | 99 | 1016.6 |
| 20260903053818 | 73 | 0.0 | 1.0 | 0.00 | 0.42 | 0.00 | 99 | 1016.6 | |
| 20260903052818 | 73 | 0.0 | 0.0 | 0.00 | 0.42 | 0.00 | 99 | 1016.7 | |
| 20260903051820 | 72 | 0.0 | 0.0 | 0.00 | 0.42 | 0.00 | 99 | 1016.8 | |
| 20260903050818 | 72 | 0.0 | 0.0 | 0.00 | 0.42 | 0.00 | 99 | 1016.7 | |
| 20260903045820 | 72 | 0.0 | 0.0 | 0.00 | 0.42 | 0.00 | 99 | 1016.9 | |
| 20260903044820 | 72 | 0.0 | 0.0 | 0.00 | 0.42 | 0.00 | 99 | 1017.3 | |
| 20260903043820 | 72 | 0.0 | 0.0 | 0.00 | 0.42 | 0.00 | 98 | 1017.1 | |
| 20260903042819 | 72 | 0.0 | 0.0 | 0.00 | 0.42 | 0.00 | 98 | 1017.0 | |
| 20260903041820 | 72 | 0.0 | 0.0 | 0.00 | 0.42 | 0.00 | 98 | 1016.9 | |
| 20260903040820 | 72 | 0.0 | 0.0 | 0.00 | 0.42 | 0.00 | 98 | 1016.9 | |
| 20260903035839 | 72 | 0.0 | 0.0 | 0.00 | 0.42 | 0.42 | 98 | 1016.8 | |
| 20260903034839 | 72 | 0.0 | 0.0 | 0.00 | 0.42 | 0.42 | 98 | 1016.9 | |
| 20260903033819 | 72 | 0.0 | 0.0 | 0.00 | 0.42 | 0.42 | 98 | 1017.0 | |
| 20260903032819 | 72 | 0.0 | 0.0 | 0.00 | 0.42 | 0.42 | 99 | 1017.1 | |
| 20260903031819 | 71 | 0.0 | 0.0 | 0.00 | 0.42 | 0.42 | 98 | 1017.3 | |
| 20260903030819 | 71 | 0.0 | 0.0 | 0.00 | 0.42 | 0.42 | 98 | 1017.1 | |
| 20260903025819 | 71 | 0.0 | 0.0 | 0.00 | 0.42 | 0.42 | 98 | 1017.4 | |
| 20260903024819 | 72 | 0.0 | 0.0 | 0.00 | 0.42 | 0.42 | 98 | 1017.1 | |
| 20260903023818 | 71 | 0.0 | 0.0 | 0.00 | 0.42 | 0.42 | 98 | 1017.2 | |
| 20260903022819 | 71 | 0.0 | 0.0 | 0.00 | 0.42 | 0.42 | 97 | 1017.5 | |
| 20260903021819 | 72 | 0.0 | 0.0 | 0.00 | 0.42 | 0.42 | 98 | 1017.3 | |
| 20260903020819 | 72 | 0.0 | 0.0 | 0.00 | 0.42 | 0.42 | 98 | 1017.2 | |
| 20260903015818 | 72 | 0.0 | 0.0 | 0.00 | 0.42 | 0.42 | 97 | 1017.2 | |
| 20260903014819 | 72 | 0.0 | 0.0 | 0.00 | 0.42 | 0.42 | 97 | 1016.9 | |
| 20260903013819 | 72 | 0.0 | 0.0 | 0.00 | 0.42 | 0.42 | 97 | 1017.1 | |
| 20260903012819 | 72 | 0.0 | 0.0 | 0.00 | 0.42 | 0.42 | 97 | 1017.4 | |
| 20260903011820 | 72 | 0.0 | 0.0 | 0.00 | 0.42 | 0.42 | 97 | 1017.4 | |
| 20260903010819 | 72 | 0.0 | 0.0 | 0.00 | 0.42 | 0.42 | 97 | 1017.4 | |
| 20260903005818 | 72 | 0.0 | 0.0 | 0.00 | 0.42 | 0.42 | 97 | 1017.2 | |
| 20260903004819 | 73 | 0.0 | 0.0 | 0.00 | 0.42 | 0.42 | 97 | 1017.2 | |
| 20260903003818 | 73 | 0.0 | 1.0 | 0.00 | 0.42 | 0.42 | 97 | 1017.2 | |
| 20260903002820 | 73 | 158 | 1.0 | 2.0 | 0.00 | 0.42 | 0.42 | 97 | 1017.0 |
| 20260903001821 | 73 | 0.0 | 0.0 | 0.00 | 0.42 | 0.42 | 97 | 1017.2 | |
| 20260903000818 | 73 | 0.0 | 0.0 | 0.00 | 0.42 | 0.42 | 97 | 1017.0 | |
| 20260902235818 | 73 | 0.0 | 0.0 | 0.00 | 0.42 | 0.42 | 96 | 1016.9 | |
| 20260902234818 | 73 | 0.0 | 1.0 | 0.00 | 0.42 | 0.42 | 96 | 1016.9 | |
| 20260902233818 | 73 | 0.0 | 0.0 | 0.00 | 0.42 | 0.42 | 96 | 1016.9 | |
| 20260902232818 | 74 | 0.0 | 0.0 | 0.00 | 0.42 | 0.42 | 96 | 1017.2 | |
| 20260902231818 | 74 | 0.0 | 0.0 | 0.00 | 0.42 | 0.42 | 96 | 1017.2 | |
| 20260902230820 | 74 | 0.0 | 0.0 | 0.00 | 0.42 | 0.42 | 96 | 1017.1 | |
| 20260902225820 | 74 | 0.0 | 0.0 | 0.00 | 0.42 | 0.42 | 95 | 1016.9 | |
| 20260902224818 | 74 | 0.0 | 0.0 | 0.00 | 0.42 | 0.42 | 95 | 1017.0 | |
| 20260902223818 | 74 | 0.0 | 0.0 | 0.00 | 0.42 | 0.42 | 96 | 1016.9 | |
| 20260902222818 | 74 | 0.0 | 1.0 | 0.00 | 0.42 | 0.42 | 95 | 1017.0 | |
| 20260902221818 | 75 | 0.0 | 0.0 | 0.00 | 0.42 | 0.42 | 95 | 1017.3 | |
| 20260902220820 | 75 | 0.0 | 0.0 | 0.00 | 0.42 | 0.42 | 95 | 1017.6 | |
| 20260902215818 | 75 | 0.0 | 0.0 | 0.00 | 0.42 | 0.42 | 95 | 1017.6 | |
| 20260902214818 | 75 | 0.0 | 0.0 | 0.00 | 0.42 | 0.42 | 95 | 1017.3 | |
| 20260902213818 | 75 | 0.0 | 0.0 | 0.00 | 0.42 | 0.42 | 95 | 1017.3 | |
| 20260902212820 | 75 | 0.0 | 1.0 | 0.00 | 0.42 | 0.42 | 95 | 1017.1 | |
| 20260902211820 | 75 | 0.0 | 0.0 | 0.00 | 0.42 | 0.42 | 94 | 1017.0 | |
| 20260902210818 | 75 | 0.0 | 0.0 | 0.00 | 0.42 | 0.42 | 94 | 1017.3 | |
| 20260902205820 | 75 | 0.0 | 0.0 | 0.00 | 0.42 | 0.42 | 94 | 1017.3 | |
| 20260902204820 | 75 | 0.0 | 0.0 | 0.00 | 0.42 | 0.42 | 93 | 1017.4 | |
| 20260902203820 | 75 | 0.0 | 0.0 | 0.00 | 0.42 | 0.42 | 93 | 1017.6 | |
| 20260902202840 | 75 | 0.0 | 0.0 | 0.00 | 0.42 | 0.42 | 93 | 1017.5 | |
| 20260902201820 | 75 | 0.0 | 0.0 | 0.00 | 0.42 | 0.42 | 93 | 1017.7 | |
| 20260902200818 | 75 | 0.0 | 0.0 | 0.00 | 0.42 | 0.42 | 96 | 1018.0 | |
| 20260902195840 | 75 | 0.0 | 0.0 | 0.00 | 0.42 | 0.42 | 95 | 1017.6 | |
| 20260902194818 | 74 | 0.0 | 0.0 | 0.00 | 0.42 | 0.42 | 94 | 1016.8 | |
| 20260902193818 | 74 | 0.0 | 1.0 | 0.00 | 0.42 | 0.42 | 95 | 1017.4 | |
| 20260902192818 | 74 | 180 | 2.0 | 3.0 | 0.00 | 0.42 | 0.42 | 95 | 1017.2 |
| 20260902191840 | 74 | 135 | 1.0 | 2.0 | 0.03 | 0.42 | 0.42 | 94 | 1017.4 |
| 20260902190820 | 74 | 90 | 1.0 | 2.0 | 0.42 | 0.42 | 0.42 | 92 | 1017.6 |
| 20260902185820 | 74 | 0.0 | 2.0 | 0.42 | 0.42 | 0.42 | 94 | 1018.7 | |
| 20260902184820 | 74 | 0.0 | 1.0 | 0.42 | 0.42 | 0.42 | 92 | 1019.2 | |
| 20260902183820 | 75 | 158 | 2.0 | 4.0 | 0.42 | 0.42 | 0.42 | 92 | 1019.7 |
| 20260902182819 | 76 | 0.0 | 0.0 | 0.42 | 0.42 | 0.42 | 89 | 1019.0 | |
| 20260902181820 | 78 | 338 | 4.0 | 8.0 | 0.38 | 0.38 | 0.38 | 82 | 1019.7 |
| 20260902180840 | 87 | 315 | 21.0 | 26.0 | 0.00 | 0.00 | 0.00 | 75 | 1020.0 |
| 20260902175820 | 89 | 315 | 3.0 | 4.0 | 0.00 | 0.00 | 0.00 | 75 | 1018.8 |
| 20260902174820 | 89 | 338 | 1.0 | 2.0 | 0.00 | 0.00 | 0.00 | 76 | 1018.7 |
| 20260902173840 | 89 | 338 | 3.0 | 5.0 | 0.00 | 0.00 | 0.00 | 77 | 1018.6 |
| 20260902172820 | 88 | 113 | 2.0 | 3.0 | 0.00 | 0.00 | 0.00 | 74 | 1018.5 |
| 20260902171820 | 88 | 0.0 | 1.0 | 0.00 | 0.00 | 0.00 | 76 | 1018.2 | |
| 20260902170819 | 89 | 68 | 2.0 | 3.0 | 0.00 | 0.00 | 0.00 | 76 | 1018.3 |
| 20260902165819 | 88 | 23 | 2.0 | 4.0 | 0.00 | 0.00 | 0.00 | 77 | 1018.2 |
| 20260902164839 | 87 | 0 | 4.0 | 8.0 | 0.00 | 0.00 | 0.00 | 78 | 1018.1 |